This is the latest recevied weather packets stored in our database for station/object OM5AST-13. If no packets are shown the sender has not sent any weather packets the latest 10 day(s).
| Time | Temp. | Humidity | Pressure | Rain* | Wind** | Luminosity | Snow |
|---|---|---|---|---|---|---|---|
| 1788429835 | 25° C | 46% | - | 0 mm | - | 0 W/m² | - |
| 1788428649 | 24.44° C | 49% | - | 0 mm | - | 0 W/m² | - |
| 1788427435 | 23.89° C | 49% | - | 0 mm | - | 0 W/m² | - |
| 1788426235 | 24.44° C | 48% | - | 0 mm | - | 0 W/m² | - |
| 1788425035 | 24.44° C | 48% | - | 0 mm | - | 0 W/m² | - |
| 1788423835 | 23.89° C | 49% | - | 0 mm | - | 0 W/m² | - |
| 1788422635 | 23.89° C | 48% | - | 0 mm | - | 0 W/m² | - |
| 1788421435 | 23.89° C | 47% | - | 0 mm | - | 0 W/m² | - |
| 1788420235 | 23.33° C | 48% | - | 0 mm | - | 0 W/m² | - |
| 1788419035 | 22.78° C | 49% | - | 0 mm | - | 0 W/m² | - |
| 1788417835 | 22.78° C | 48% | - | 0 mm | - | 0 W/m² | - |
| 1788416635 | 22.22° C | 51% | - | 0 mm | - | 0 W/m² | - |
| 1788415437 | 22.22° C | 54% | - | 0 mm | - | 0 W/m² | - |
| 1788414235 | 21.11° C | 60% | - | 0 mm | - | 0 W/m² | - |
| 1788413035 | 20.56° C | 57% | - | 0 mm | - | 0 W/m² | - |
| 1788411835 | 20° C | 57% | - | 0 mm | - | 0 W/m² | - |
| 1788410635 | 20° C | 56% | - | 0 mm | - | 0 W/m² | - |
| 1788409435 | 20° C | 56% | - | 0 mm | - | 0 W/m² | - |
| 1788408235 | 19.44° C | 57% | - | 0 mm | - | 0 W/m² | - |
| 1788407035 | 19.44° C | 57% | - | 0 mm | - | 0 W/m² | - |
| 1788405835 | 20° C | 57% | - | 0 mm | - | 0 W/m² | - |
| 1788404635 | 20° C | 56% | - | 0 mm | - | 0 W/m² | - |
| 1788403435 | 20° C | 56% | - | 0 mm | - | 0 W/m² | - |
| 1788402235 | 20.56° C | 56% | - | 0 mm | - | 0 W/m² | - |
| 1788401035 | 20.56° C | 55% | - | 0 mm | - | 0 W/m² | - |
* Rain latest hour (hover to see other rain measurements)
** Current wind speed in m/s (hover to see current wind gust speed)